AAL95 LEMD-KJFK

Flight info

Callsign AAL95
Flight time N/A
Altitude 35000
Route ZMR N733 DESAT/N0462F360 DCT STG DCT PASAS/M081F380 DCT 47N020W 4830N03000W 48N040W 47N050W DCT PORTI/N0472F380 DCT BRADD DCT PLYMM PARCH4
Aircraft B772/H-SDE2E3FGHIJ5LORVWXY/LB1D1

Departure

Time N/A
Airport Adolfo Suárez Madrid–Barajas Airport (LEMD)

Arrival

Time 2026-05-09 18:40
Airport John F. Kennedy International Airport (KJFK)
Time Latitude Longitude Altitude Speed Heading
2026-05-09 12:56 46.55599 -18.26081 36963 ft 477 kts 293°
2026-05-09 12:56 46.56786 -18.30564 36969 ft 477 kts 293°
2026-05-09 12:57 46.59159 -18.39551 36979 ft 477 kts 293°
2026-05-09 12:57 46.61531 -18.48570 36987 ft 477 kts 293°
2026-05-09 12:58 46.63888 -18.57565 36991 ft 478 kts 293°
2026-05-09 12:58 46.66239 -18.66572 36995 ft 477 kts 292°
2026-05-09 12:59 46.68579 -18.75574 36995 ft 478 kts 292°
2026-05-09 12:59 46.70919 -18.84609 37008 ft 477 kts 292°
2026-05-09 13:00 46.73256 -18.93668 37010 ft 478 kts 292°
2026-05-09 13:00 46.75588 -19.02741 37013 ft 478 kts 292°
2026-05-09 13:01 46.77911 -19.11819 37017 ft 478 kts 292°
2026-05-09 13:01 46.80225 -19.20895 37025 ft 479 kts 293°
2026-05-09 13:02 46.82531 -19.29975 37038 ft 478 kts 292°
2026-05-09 13:02 46.84827 -19.39057 37045 ft 477 kts 292°
2026-05-09 13:03 46.87117 -19.48147 37052 ft 479 kts 293°
2026-05-09 13:03 46.89406 -19.57271 37056 ft 479 kts 293°
2026-05-09 13:04 46.91688 -19.66400 37066 ft 478 kts 292°
2026-05-09 13:04 46.93962 -19.75539 37069 ft 479 kts 292°
2026-05-09 13:05 46.96225 -19.84667 37076 ft 479 kts 292°
2026-05-09 13:05 46.98480 -19.93801 37081 ft 479 kts 292°
2026-05-09 13:06 47.00581 -20.03047 37086 ft 481 kts 289°
2026-05-09 13:06 47.02452 -20.12418 37100 ft 481 kts 289°
2026-05-09 13:07 47.04309 -20.21808 37100 ft 481 kts 289°
2026-05-09 13:07 47.06153 -20.31196 37112 ft 481 kts 289°
2026-05-09 13:08 47.07997 -20.40636 37111 ft 482 kts 289°
2026-05-09 13:08 47.09831 -20.50074 37120 ft 482 kts 289°
2026-05-09 13:09 47.11662 -20.59550 37132 ft 482 kts 289°
2026-05-09 13:09 47.13481 -20.69006 37134 ft 484 kts 289°
2026-05-09 13:10 47.15297 -20.78496 37133 ft 483 kts 289°
2026-05-09 13:10 47.17099 -20.87965 37141 ft 483 kts 289°
2026-05-09 13:11 47.18894 -20.97440 37142 ft 482 kts 289°
2026-05-09 13:11 47.20679 -21.06914 37159 ft 482 kts 289°
2026-05-09 13:12 47.22462 -21.16417 37167 ft 484 kts 289°
2026-05-09 13:12 47.24240 -21.25950 37175 ft 484 kts 289°
2026-05-09 13:13 47.26012 -21.35498 37183 ft 483 kts 289°
2026-05-09 13:13 47.27771 -21.45023 37187 ft 484 kts 289°
2026-05-09 13:14 47.29521 -21.54552 37199 ft 484 kts 289°
2026-05-09 13:16 47.36462 -21.92835 37229 ft 484 kts 289°
2026-05-09 13:16 47.38176 -22.02410 37224 ft 484 kts 289°
2026-05-09 13:17 47.39879 -22.11980 37231 ft 485 kts 289°
2026-05-09 13:17 47.41579 -22.21579 37230 ft 485 kts 289°
2026-05-09 13:18 47.43268 -22.31170 37245 ft 484 kts 289°
2026-05-09 13:18 47.44950 -22.40776 37248 ft 484 kts 289°
2026-05-09 13:19 47.46623 -22.50381 37257 ft 484 kts 290°
2026-05-09 13:19 47.48291 -22.60006 37256 ft 484 kts 290°
2026-05-09 13:20 47.49952 -22.69645 37261 ft 485 kts 289°
2026-05-09 13:20 47.51605 -22.79294 37263 ft 485 kts 289°
2026-05-09 13:21 47.53250 -22.88947 37267 ft 485 kts 289°
2026-05-09 13:21 47.54888 -22.98609 37271 ft 487 kts 289°
2026-05-09 13:22 47.56789 -23.09897 37288 ft 486 kts 289°
2026-05-09 13:22 47.58141 -23.17969 37291 ft 485 kts 289°
2026-05-09 13:23 47.62158 -23.42178 37304 ft 485 kts 290°
2026-05-09 13:24 47.63752 -23.51880 37307 ft 486 kts 290°
2026-05-09 13:24 47.65335 -23.61577 37295 ft 485 kts 290°
2026-05-09 13:25 47.66915 -23.71302 37302 ft 486 kts 289°
2026-05-09 13:26 47.69272 -23.85923 37220 ft 485 kts 289°
2026-05-09 13:26 47.70842 -23.95727 37304 ft 490 kts 289°
2026-05-09 13:27 47.72402 -24.05541 37306 ft 487 kts 289°
2026-05-09 13:27 47.73942 -24.15281 37336 ft 486 kts 290°
2026-05-09 13:28 47.75480 -24.25055 37337 ft 489 kts 290°
2026-05-09 13:28 47.77013 -24.34869 37319 ft 489 kts 290°
2026-05-09 13:29 47.78539 -24.44693 37382 ft 493 kts 290°
2026-05-09 13:29 47.79308 -24.49658 37649 ft 496 kts 290°
2026-05-09 13:29 47.80071 -24.54620 38222 ft 492 kts 290°
2026-05-09 13:29 47.80825 -24.59539 38836 ft 486 kts 289°
2026-05-09 13:30 47.81570 -24.64409 39212 ft 484 kts 289°
2026-05-09 13:30 47.82316 -24.69287 39327 ft 487 kts 289°
2026-05-09 13:30 47.83066 -24.74199 39349 ft 490 kts 289°
2026-05-09 13:31 47.84560 -24.84063 39338 ft 489 kts 289°
2026-05-09 13:31 47.86035 -24.93864 39377 ft 487 kts 289°
2026-05-09 13:32 47.87507 -25.03692 39393 ft 489 kts 289°
2026-05-09 13:32 47.89697 -25.18448 39390 ft 488 kts 289°
2026-05-09 13:33 47.91158 -25.28356 39382 ft 491 kts 289°
2026-05-09 13:33 47.92848 -25.39919 39392 ft 489 kts 289°
2026-05-09 13:34 47.94043 -25.48142 39383 ft 486 kts 289°
2026-05-09 13:34 47.95464 -25.57972 39404 ft 487 kts 290°
2026-05-09 13:35 47.96885 -25.67868 39373 ft 488 kts 289°
2026-05-09 13:35 47.98294 -25.77749 39384 ft 488 kts 289°
2026-05-09 13:36 47.99700 -25.87665 39413 ft 490 kts 289°
2026-05-09 13:36 48.01090 -25.97549 39412 ft 489 kts 289°
2026-05-09 13:37 48.02478 -26.07475 39424 ft 490 kts 289°
2026-05-09 13:37 48.03854 -26.17384 39412 ft 489 kts 289°
2026-05-09 13:38 48.05223 -26.27308 39413 ft 490 kts 289°
2026-05-09 13:38 48.06588 -26.37269 39429 ft 491 kts 290°
2026-05-09 13:39 48.07939 -26.47199 39445 ft 490 kts 290°
2026-05-09 13:39 48.09289 -26.57181 39430 ft 491 kts 290°
2026-05-09 13:40 48.10623 -26.67132 39457 ft 490 kts 289°
2026-05-09 13:40 48.11958 -26.77143 39431 ft 493 kts 289°
2026-05-09 13:41 48.13285 -26.87171 39441 ft 493 kts 289°
2026-05-09 13:41 48.14600 -26.97181 39440 ft 494 kts 290°
2026-05-09 13:42 48.15918 -27.07279 39480 ft 496 kts 290°
2026-05-09 13:42 48.17214 -27.17311 39456 ft 489 kts 290°
2026-05-09 13:43 48.18508 -27.27347 39465 ft 495 kts 290°
2026-05-09 13:43 48.19791 -27.37414 39476 ft 492 kts 290°
2026-05-09 13:44 48.21056 -27.47411 39477 ft 489 kts 290°
2026-05-09 13:44 48.22317 -27.57419 39480 ft 491 kts 290°
2026-05-09 13:45 48.23574 -27.67482 39467 ft 492 kts 290°
2026-05-09 13:45 48.24821 -27.77544 39491 ft 494 kts 290°
2026-05-09 13:46 48.26056 -27.87599 39476 ft 490 kts 290°
2026-05-09 13:46 48.27282 -27.97640 39494 ft 492 kts 290°
2026-05-09 13:47 48.28501 -28.07702 39496 ft 492 kts 290°
2026-05-09 13:47 48.29711 -28.17774 39510 ft 492 kts 290°
2026-05-09 13:48 48.30909 -28.27827 39471 ft 488 kts 290°
2026-05-09 13:48 48.32085 -28.37775 39499 ft 486 kts 290°
2026-05-09 13:49 48.33266 -28.47803 39485 ft 490 kts 290°
2026-05-09 13:49 48.34435 -28.57845 39487 ft 488 kts 290°
2026-05-09 13:50 48.35589 -28.67838 39502 ft 488 kts 290°
2026-05-09 13:50 48.36745 -28.77903 39482 ft 490 kts 290°
2026-05-09 13:51 48.37876 -28.87885 39489 ft 484 kts 290°
2026-05-09 13:51 48.39005 -28.97861 39505 ft 488 kts 290°
2026-05-09 13:52 48.40125 -29.07874 39491 ft 486 kts 290°
2026-05-09 13:52 48.41225 -29.17804 39510 ft 482 kts 290°
2026-05-09 13:53 48.42324 -29.27764 39501 ft 485 kts 290°
2026-05-09 13:53 48.43407 -29.37704 39509 ft 481 kts 290°
2026-05-09 13:54 48.44483 -29.47626 39513 ft 484 kts 290°
2026-05-09 13:54 48.45549 -29.57565 39510 ft 481 kts 290°
2026-05-09 13:55 48.46603 -29.67461 39505 ft 483 kts 289°
2026-05-09 13:55 48.47651 -29.77388 39510 ft 481 kts 289°
2026-05-09 13:56 48.48686 -29.87279 39513 ft 483 kts 289°
2026-05-09 13:56 48.49680 -29.97281 39508 ft 487 kts 284°
2026-05-09 13:57 48.49828 -30.07485 39522 ft 490 kts 280°
2026-05-09 13:57 48.49813 -30.17808 39529 ft 497 kts 279°
2026-05-09 13:58 48.49755 -30.28127 39534 ft 492 kts 279°
2026-05-09 13:58 48.49678 -30.38380 39537 ft 493 kts 279°
2026-05-09 13:59 48.49583 -30.48692 39536 ft 494 kts 278°
2026-05-09 13:59 48.49473 -30.58983 39535 ft 491 kts 279°
2026-05-09 14:00 48.49375 -30.67546 39521 ft 494 kts 278°
2026-05-09 14:00 48.49224 -30.79559 39527 ft 494 kts 278°
2026-05-09 14:01 48.49084 -30.89872 39534 ft 494 kts 278°
2026-05-09 14:01 48.48933 -31.00139 39530 ft 491 kts 278°
2026-05-09 14:02 48.48775 -31.10384 39531 ft 491 kts 277°
2026-05-09 14:02 48.48608 -31.20641 39536 ft 492 kts 278°
2026-05-09 14:03 48.48431 -31.30902 39538 ft 491 kts 278°
2026-05-09 14:03 48.48245 -31.41101 39543 ft 488 kts 277°
2026-05-09 14:04 48.48053 -31.51330 39543 ft 493 kts 277°
2026-05-09 14:04 48.47847 -31.61588 39541 ft 489 kts 277°
2026-05-09 14:05 48.47635 -31.71793 39539 ft 489 kts 277°
2026-05-09 14:05 48.47413 -31.82021 39537 ft 488 kts 277°
2026-05-09 14:06 48.47184 -31.92192 39539 ft 490 kts 276°
2026-05-09 14:06 48.46945 -32.02413 39539 ft 490 kts 276°
2026-05-09 14:07 48.46696 -32.12596 39542 ft 488 kts 277°
2026-05-09 14:07 48.46440 -32.22746 39537 ft 488 kts 276°
2026-05-09 14:08 48.46175 -32.32928 39538 ft 488 kts 276°
2026-05-09 14:08 48.45900 -32.43089 39545 ft 487 kts 276°
2026-05-09 14:09 48.45617 -32.53251 39550 ft 489 kts 276°
2026-05-09 14:09 48.45324 -32.63424 39555 ft 487 kts 276°
2026-05-09 14:10 48.44871 -32.78653 39547 ft 490 kts 275°
2026-05-09 14:11 48.44554 -32.88832 39540 ft 487 kts 275°
2026-05-09 14:11 48.44231 -32.98979 39539 ft 488 kts 275°
2026-05-09 14:12 48.43898 -33.09140 39536 ft 486 kts 275°
2026-05-09 14:12 48.43557 -33.19286 39539 ft 488 kts 275°
2026-05-09 14:13 48.43207 -33.29403 39536 ft 485 kts 275°
2026-05-09 14:15 48.41725 -33.69796 39542 ft 484 kts 274°
2026-05-09 14:15 48.41334 -33.79870 39547 ft 485 kts 274°
2026-05-09 14:16 48.40932 -33.89945 39550 ft 483 kts 274°
2026-05-09 14:16 48.40524 -33.99996 39553 ft 484 kts 274°
2026-05-09 14:17 48.40105 -34.10085 39552 ft 483 kts 274°
2026-05-09 14:17 48.39679 -34.20119 39550 ft 482 kts 274°
2026-05-09 14:18 48.39246 -34.30112 39548 ft 481 kts 274°
2026-05-09 14:18 48.38805 -34.40090 39547 ft 480 kts 273°
2026-05-09 14:19 48.38355 -34.50100 39542 ft 480 kts 273°
2026-05-09 14:19 48.37897 -34.60059 39540 ft 478 kts 273°
2026-05-09 14:20 48.37431 -34.70029 39534 ft 480 kts 272°
2026-05-09 14:20 48.36957 -34.79975 39531 ft 479 kts 272°
2026-05-09 14:21 48.36229 -34.94896 39532 ft 478 kts 272°
2026-05-09 14:21 48.35735 -35.04815 39533 ft 480 kts 272°
2026-05-09 14:22 48.35230 -35.14770 39539 ft 478 kts 272°
2026-05-09 14:22 48.34720 -35.24662 39540 ft 477 kts 272°
2026-05-09 14:23 48.34200 -35.34577 39533 ft 478 kts 272°
2026-05-09 14:23 48.33672 -35.44476 39533 ft 477 kts 272°
2026-05-09 14:24 48.33136 -35.54364 39533 ft 477 kts 271°
2026-05-09 14:24 48.32593 -35.64244 39530 ft 476 kts 271°
2026-05-09 14:25 48.32038 -35.74170 39530 ft 479 kts 271°
2026-05-09 14:25 48.31475 -35.84067 39528 ft 476 kts 271°
2026-05-09 14:26 48.30906 -35.93927 39518 ft 475 kts 271°
2026-05-09 14:26 48.30329 -36.03801 39513 ft 476 kts 271°
2026-05-09 14:27 48.29744 -36.13644 39508 ft 475 kts 270°
2026-05-09 14:27 48.29150 -36.23496 39507 ft 476 kts 270°
2026-05-09 14:28 48.28547 -36.33369 39503 ft 476 kts 270°
2026-05-09 14:28 48.27937 -36.43196 39508 ft 473 kts 270°
2026-05-09 14:29 48.27320 -36.53012 39511 ft 475 kts 270°
2026-05-09 14:29 48.26693 -36.62843 39513 ft 474 kts 270°
2026-05-09 14:30 48.26058 -36.72676 39512 ft 474 kts 269°
2026-05-09 14:30 48.25416 -36.82479 39512 ft 473 kts 269°
2026-05-09 14:31 48.24766 -36.92288 39508 ft 473 kts 269°
2026-05-09 14:31 48.24105 -37.02117 39512 ft 474 kts 269°
2026-05-09 14:32 48.23439 -37.11894 39510 ft 472 kts 269°
2026-05-09 14:32 48.22765 -37.21684 39500 ft 473 kts 269°
2026-05-09 14:33 48.22084 -37.31426 39491 ft 470 kts 269°
2026-05-09 14:33 48.21396 -37.41158 39480 ft 470 kts 268°
2026-05-09 14:34 48.20703 -37.50854 39480 ft 469 kts 268°
2026-05-09 14:34 48.20003 -37.60522 39481 ft 468 kts 268°
2026-05-09 14:35 48.19295 -37.70189 39474 ft 469 kts 267°
2026-05-09 14:35 48.18578 -37.79864 39473 ft 468 kts 267°
2026-05-09 14:36 48.17853 -37.89528 39472 ft 469 kts 267°
2026-05-09 14:36 48.17122 -37.99175 39470 ft 467 kts 267°
2026-05-09 14:37 48.16386 -38.08768 39466 ft 465 kts 266°
2026-05-09 14:37 48.15643 -38.18352 39466 ft 466 kts 266°
2026-05-09 14:38 48.14891 -38.27951 39463 ft 465 kts 266°
2026-05-09 14:38 48.14130 -38.37544 39457 ft 465 kts 266°
2026-05-09 14:39 48.13364 -38.47100 39453 ft 463 kts 266°
2026-05-09 14:39 48.12593 -38.56632 39444 ft 464 kts 266°
2026-05-09 14:40 48.11811 -38.66195 39442 ft 464 kts 265°
2026-05-09 14:40 48.11021 -38.75753 39443 ft 464 kts 265°
2026-05-09 14:41 48.10225 -38.85283 39429 ft 463 kts 265°
2026-05-09 14:41 48.09422 -38.94792 39430 ft 463 kts 264°
2026-05-09 14:42 48.08613 -39.04292 39419 ft 462 kts 264°
2026-05-09 14:42 48.07796 -39.13783 39418 ft 461 kts 264°
2026-05-09 14:43 48.06972 -39.23258 39424 ft 460 kts 264°
2026-05-09 14:43 48.06141 -39.32727 39416 ft 460 kts 264°
2026-05-09 14:44 48.05303 -39.42181 39418 ft 460 kts 264°
2026-05-09 14:44 48.04460 -39.51604 39412 ft 459 kts 264°
2026-05-09 14:45 48.03608 -39.61040 39411 ft 459 kts 264°
2026-05-09 14:45 48.02749 -39.70461 39414 ft 458 kts 263°
2026-05-09 14:46 48.01883 -39.79877 39413 ft 457 kts 263°
2026-05-09 14:46 48.01013 -39.89246 39410 ft 457 kts 263°
2026-05-09 14:47 48.00133 -39.98636 39405 ft 457 kts 263°
2026-05-09 14:47 47.99484 -40.08059 39388 ft 457 kts 266°
2026-05-09 14:48 47.98988 -40.17486 39378 ft 458 kts 266°
2026-05-09 14:48 47.98468 -40.26928 39373 ft 457 kts 266°
2026-05-09 14:49 47.97933 -40.36347 39372 ft 455 kts 266°
2026-05-09 14:49 47.97385 -40.45759 39368 ft 455 kts 266°
2026-05-09 14:50 47.96831 -40.55105 39361 ft 452 kts 265°
2026-05-09 14:50 47.96270 -40.64423 39358 ft 455 kts 265°
2026-05-09 14:51 47.95697 -40.73808 39352 ft 455 kts 264°
2026-05-09 14:51 47.95117 -40.83165 39347 ft 456 kts 264°
2026-05-09 14:52 47.94526 -40.92574 39347 ft 457 kts 264°
2026-05-09 14:52 47.93927 -41.01969 39344 ft 456 kts 264°
2026-05-09 14:53 47.93325 -41.11315 39335 ft 453 kts 264°
2026-05-09 14:53 47.92717 -41.20617 39330 ft 452 kts 264°
2026-05-09 14:54 47.92101 -41.29925 39335 ft 453 kts 264°
2026-05-09 14:54 47.91477 -41.39243 39320 ft 452 kts 264°
2026-05-09 14:55 47.90848 -41.48518 39310 ft 451 kts 263°
2026-05-09 14:55 47.90212 -41.57791 39312 ft 451 kts 263°
2026-05-09 14:56 47.89568 -41.67062 39314 ft 450 kts 262°
2026-05-09 14:56 47.88917 -41.76328 39307 ft 450 kts 262°
2026-05-09 14:57 47.88259 -41.85582 39302 ft 451 kts 262°
2026-05-09 14:57 47.87594 -41.94830 39296 ft 451 kts 262°
2026-05-09 14:58 47.86918 -42.04120 39305 ft 451 kts 262°
2026-05-09 14:58 47.86236 -42.13392 39287 ft 451 kts 262°
2026-05-09 14:59 47.85547 -42.22648 39274 ft 452 kts 262°
2026-05-09 14:59 47.84852 -42.31893 39263 ft 450 kts 261°
2026-05-09 15:00 47.84151 -42.41122 39254 ft 450 kts 261°
2026-05-09 15:00 47.83442 -42.50342 39252 ft 450 kts 261°
2026-05-09 15:01 47.82364 -42.64184 39240 ft 450 kts 261°
2026-05-09 15:02 47.81636 -42.73415 39241 ft 449 kts 260°
2026-05-09 15:02 47.80900 -42.82645 39243 ft 450 kts 260°
2026-05-09 15:03 47.80160 -42.91831 39240 ft 448 kts 259°
2026-05-09 15:03 47.79415 -43.00980 39243 ft 447 kts 259°
2026-05-09 15:04 47.78663 -43.10126 39240 ft 447 kts 259°
2026-05-09 15:06 47.75600 -43.46497 39213 ft 443 kts 259°
2026-05-09 15:06 47.74818 -43.55553 39204 ft 444 kts 259°
2026-05-09 15:07 47.74029 -43.64616 39191 ft 442 kts 259°
2026-05-09 15:07 47.73237 -43.73633 39187 ft 442 kts 258°
2026-05-09 15:08 47.72436 -43.82655 39195 ft 444 kts 258°
2026-05-09 15:08 47.71224 -43.96179 39169 ft 440 kts 257°
2026-05-09 15:10 47.67933 -44.31971 39151 ft 438 kts 257°
2026-05-09 15:11 47.67094 -44.40898 39146 ft 438 kts 257°
2026-05-09 15:11 47.66250 -44.49799 39138 ft 437 kts 257°
2026-05-09 15:12 47.65398 -44.58719 39140 ft 439 kts 257°
2026-05-09 15:12 47.64540 -44.67621 39138 ft 436 kts 256°
2026-05-09 15:13 47.63675 -44.76518 39138 ft 438 kts 256°
2026-05-09 15:13 47.62805 -44.85400 39133 ft 437 kts 256°
2026-05-09 15:14 47.61926 -44.94293 39127 ft 437 kts 256°
2026-05-09 15:14 47.61045 -45.03153 39122 ft 435 kts 256°
2026-05-09 15:15 47.60157 -45.11992 39122 ft 435 kts 256°
2026-05-09 15:15 47.59263 -45.20827 39116 ft 435 kts 255°
2026-05-09 15:16 47.58365 -45.29635 39114 ft 433 kts 255°
2026-05-09 15:16 47.57459 -45.38440 39112 ft 434 kts 255°
2026-05-09 15:17 47.56547 -45.47245 39108 ft 436 kts 255°
2026-05-09 15:17 47.55627 -45.56060 39102 ft 433 kts 255°
2026-05-09 15:18 47.54703 -45.64837 39101 ft 433 kts 255°
2026-05-09 15:18 47.53775 -45.73603 39099 ft 432 kts 254°
2026-05-09 15:19 47.52845 -45.82314 39096 ft 430 kts 254°
2026-05-09 15:19 47.51904 -45.91046 39090 ft 432 kts 253°
2026-05-09 15:20 47.50488 -46.04090 39088 ft 429 kts 253°
2026-05-09 15:21 47.49541 -46.12739 39068 ft 427 kts 253°
2026-05-09 15:21 47.48586 -46.21384 39079 ft 428 kts 253°
2026-05-09 15:22 47.47622 -46.30053 39069 ft 428 kts 253°
2026-05-09 15:22 47.46657 -46.38682 39054 ft 425 kts 252°
2026-05-09 15:23 47.45681 -46.47328 39057 ft 428 kts 252°
2026-05-09 15:23 47.44701 -46.55965 39052 ft 426 kts 252°
2026-05-09 15:24 47.43721 -46.64535 39049 ft 425 kts 252°
2026-05-09 15:24 47.42731 -46.73136 39047 ft 424 kts 252°
2026-05-09 15:25 47.41744 -46.81653 39038 ft 421 kts 251°
2026-05-09 15:25 47.40752 -46.90153 39030 ft 421 kts 251°
2026-05-09 15:26 47.39251 -47.02902 39020 ft 421 kts 251°
2026-05-09 15:26 47.38246 -47.11370 39022 ft 421 kts 251°
2026-05-09 15:27 47.37227 -47.19894 39020 ft 424 kts 251°
2026-05-09 15:27 47.36209 -47.28379 39011 ft 419 kts 251°
2026-05-09 15:28 47.35180 -47.36864 39018 ft 423 kts 251°
2026-05-09 15:28 47.34154 -47.45311 39010 ft 418 kts 251°
2026-05-09 15:29 47.33119 -47.53731 39007 ft 423 kts 251°
2026-05-09 15:29 47.32075 -47.62206 39005 ft 418 kts 250°
2026-05-09 15:30 47.31029 -47.70629 39007 ft 421 kts 250°
2026-05-09 15:30 47.29977 -47.79059 38986 ft 416 kts 250°
2026-05-09 15:31 47.28925 -47.87419 38997 ft 418 kts 249°
2026-05-09 15:31 47.27865 -47.95803 38994 ft 417 kts 249°
2026-05-09 15:32 47.26801 -48.04168 38994 ft 416 kts 249°
2026-05-09 15:32 47.25731 -48.12521 38991 ft 417 kts 249°
2026-05-09 15:33 47.24662 -48.20826 38993 ft 414 kts 249°
2026-05-09 15:33 47.23577 -48.29178 38986 ft 418 kts 249°
2026-05-09 15:34 47.22496 -48.37486 38992 ft 416 kts 249°
2026-05-09 15:34 47.21403 -48.45816 38992 ft 415 kts 248°
2026-05-09 15:35 47.20308 -48.54121 38998 ft 414 kts 248°
2026-05-09 15:35 47.19208 -48.62405 38984 ft 414 kts 248°
2026-05-09 15:36 47.18111 -48.70640 38991 ft 409 kts 247°
2026-05-09 15:36 47.17004 -48.78869 38990 ft 413 kts 247°
2026-05-09 15:37 47.15888 -48.87127 38995 ft 415 kts 247°
2026-05-09 15:37 47.14764 -48.95405 38988 ft 414 kts 247°
2026-05-09 15:38 47.13641 -49.03627 39002 ft 416 kts 246°
2026-05-09 15:38 47.12500 -49.11939 38988 ft 413 kts 246°
2026-05-09 15:39 47.11360 -49.20185 38995 ft 415 kts 247°
2026-05-09 15:39 47.10214 -49.28443 38989 ft 412 kts 247°
2026-05-09 15:40 47.09071 -49.36625 38994 ft 415 kts 246°
2026-05-09 15:40 47.07904 -49.44922 38990 ft 414 kts 246°
2026-05-09 15:41 47.06751 -49.53112 38973 ft 410 kts 246°
2026-05-09 15:41 47.05571 -49.61377 38998 ft 420 kts 246°
2026-05-09 15:42 47.04389 -49.69687 38888 ft 412 kts 246°
2026-05-09 15:42 47.03803 -49.73777 39057 ft 415 kts 245°
2026-05-09 15:42 47.03205 -49.77917 38989 ft 417 kts 246°
2026-05-09 15:43 47.02012 -49.86191 38989 ft 415 kts 246°
2026-05-09 15:43 47.00818 -49.94416 39075 ft 416 kts 246°
2026-05-09 15:44 46.99300 -50.02469 38991 ft 408 kts 240°
2026-05-09 15:44 46.97477 -50.10309 38993 ft 406 kts 240°
2026-05-09 15:45 46.95637 -50.18077 38990 ft 409 kts 240°
2026-05-09 15:45 46.93756 -50.25925 38987 ft 409 kts 240°
2026-05-09 15:46 46.91879 -50.33704 39022 ft 408 kts 240°
2026-05-09 15:46 46.89965 -50.41582 38950 ft 413 kts 240°
2026-05-09 15:47 46.88037 -50.49491 39030 ft 416 kts 240°
2026-05-09 15:47 46.86118 -50.57349 38996 ft 409 kts 240°
2026-05-09 15:48 46.84175 -50.65238 39033 ft 418 kts 240°
2026-05-09 15:48 46.82228 -50.73152 39036 ft 411 kts 240°
2026-05-09 15:49 46.80291 -50.80977 38994 ft 412 kts 240°
2026-05-09 15:49 46.78325 -50.88881 39036 ft 420 kts 241°
2026-05-09 15:50 46.76358 -50.96791 39029 ft 411 kts 240°
2026-05-09 15:50 46.74391 -51.04649 39034 ft 419 kts 241°
2026-05-09 15:51 46.72390 -51.12624 39023 ft 418 kts 241°
2026-05-09 15:51 46.70403 -51.20519 39042 ft 418 kts 241°
2026-05-09 15:52 46.67390 -51.32430 39020 ft 420 kts 242°
2026-05-09 15:53 46.65358 -51.40427 39022 ft 423 kts 242°
2026-05-09 15:53 46.63338 -51.48363 39017 ft 416 kts 242°
2026-05-09 15:54 46.61309 -51.56287 39013 ft 422 kts 242°
2026-05-09 15:54 46.59261 -51.64269 39023 ft 421 kts 242°
2026-05-09 15:55 46.57214 -51.72220 39030 ft 422 kts 241°
2026-05-09 15:55 46.55157 -51.80179 39012 ft 420 kts 241°
2026-05-09 15:56 46.53109 -51.88081 39011 ft 418 kts 242°
2026-05-09 15:56 46.51044 -51.96010 39014 ft 423 kts 242°
2026-05-09 15:57 46.49348 -52.04194 39009 ft 427 kts 250°
2026-05-09 15:57 46.48112 -52.12638 39020 ft 431 kts 250°
2026-05-09 15:58 46.46861 -52.21116 39023 ft 431 kts 250°
2026-05-09 15:58 46.45597 -52.29600 39016 ft 430 kts 250°
2026-05-09 15:59 46.44329 -52.38040 39019 ft 432 kts 250°
2026-05-09 15:59 46.43047 -52.46522 39013 ft 431 kts 251°
2026-05-09 16:00 46.41752 -52.55033 39013 ft 435 kts 251°
2026-05-09 16:00 46.40447 -52.63575 39025 ft 433 kts 251°
2026-05-09 16:01 46.39146 -52.72043 39024 ft 431 kts 251°
2026-05-09 16:01 46.37836 -52.80510 39023 ft 436 kts 250°
2026-05-09 16:02 46.36516 -52.89015 39022 ft 431 kts 250°
2026-05-09 16:02 46.34530 -53.01700 39019 ft 436 kts 251°
2026-05-09 16:03 46.33194 -53.10197 39027 ft 433 kts 251°
2026-05-09 16:03 46.31849 -53.18689 39018 ft 436 kts 251°
2026-05-09 16:04 46.30497 -53.27193 39026 ft 436 kts 251°
2026-05-09 16:04 46.29133 -53.35726 39023 ft 435 kts 251°
2026-05-09 16:05 46.27766 -53.44228 39020 ft 438 kts 251°
2026-05-09 16:05 46.26391 -53.52745 39036 ft 435 kts 252°
2026-05-09 16:06 46.25013 -53.61231 39028 ft 437 kts 251°
2026-05-09 16:06 46.23615 -53.69795 39033 ft 437 kts 251°
2026-05-09 16:07 46.22222 -53.78296 39038 ft 437 kts 251°
2026-05-09 16:07 46.20824 -53.86777 39036 ft 435 kts 251°
2026-05-09 16:08 46.19411 -53.95301 39039 ft 440 kts 251°
2026-05-09 16:08 46.17984 -54.03874 39044 ft 439 kts 251°
2026-05-09 16:09 46.16559 -54.12393 39057 ft 439 kts 251°
2026-05-09 16:09 46.15123 -54.20933 39056 ft 441 kts 252°
2026-05-09 16:10 46.13680 -54.29473 39065 ft 438 kts 252°
2026-05-09 16:10 46.12239 -54.37963 39067 ft 439 kts 251°
2026-05-09 16:11 46.10785 -54.46482 39057 ft 438 kts 252°
2026-05-09 16:11 46.09329 -54.54970 39059 ft 438 kts 252°
2026-05-09 16:12 46.07861 -54.63491 39053 ft 441 kts 252°
2026-05-09 16:12 46.06383 -54.72025 39068 ft 440 kts 251°
2026-05-09 16:13 46.04901 -54.80547 39061 ft 439 kts 251°
2026-05-09 16:13 46.03412 -54.89065 39066 ft 441 kts 251°
2026-05-09 16:14 46.01913 -54.97595 39063 ft 440 kts 251°
2026-05-09 16:14 46.00413 -55.06096 39072 ft 440 kts 251°
2026-05-09 16:15 45.98904 -55.14609 39067 ft 440 kts 252°
2026-05-09 16:15 45.97392 -55.23094 39071 ft 439 kts 252°
2026-05-09 16:16 45.95875 -55.31566 39073 ft 439 kts 252°
2026-05-09 16:16 45.94346 -55.40065 39074 ft 441 kts 252°
2026-05-09 16:17 45.92810 -55.48568 39077 ft 441 kts 252°
2026-05-09 16:17 45.91272 -55.57045 39084 ft 440 kts 252°
2026-05-09 16:18 45.89722 -55.65542 39083 ft 441 kts 251°
2026-05-09 16:18 45.88174 -55.73993 39092 ft 440 kts 251°
2026-05-09 16:19 45.86609 -55.82493 39100 ft 441 kts 252°
2026-05-09 16:19 45.85044 -55.90957 39104 ft 442 kts 252°
2026-05-09 16:20 45.83471 -55.99430 39100 ft 441 kts 252°
2026-05-09 16:20 45.81888 -56.07910 39100 ft 443 kts 252°
2026-05-09 16:21 45.80299 -56.16392 39094 ft 442 kts 252°
2026-05-09 16:21 45.78706 -56.24854 39102 ft 442 kts 252°
2026-05-09 16:22 45.77105 -56.33316 39090 ft 441 kts 252°
2026-05-09 16:22 45.75504 -56.41746 39098 ft 441 kts 252°
2026-05-09 16:23 45.73893 -56.50187 39096 ft 441 kts 252°
2026-05-09 16:23 45.72279 -56.58609 39095 ft 440 kts 252°
2026-05-09 16:24 45.70659 -56.67025 39103 ft 441 kts 252°
2026-05-09 16:24 45.69031 -56.75444 39112 ft 440 kts 252°
2026-05-09 16:25 45.67397 -56.83856 39111 ft 441 kts 252°
2026-05-09 16:25 45.65760 -56.92249 39111 ft 440 kts 252°
2026-05-09 16:26 45.64115 -57.00647 39118 ft 441 kts 252°
2026-05-09 16:26 45.62464 -57.09043 39117 ft 440 kts 252°
2026-05-09 16:27 45.60806 -57.17431 39118 ft 439 kts 252°
2026-05-09 16:27 45.59149 -57.25781 39116 ft 439 kts 252°
2026-05-09 16:28 45.57483 -57.34140 39115 ft 439 kts 252°
2026-05-09 16:28 45.55815 -57.42478 39118 ft 438 kts 252°
2026-05-09 16:29 45.54145 -57.50787 39115 ft 438 kts 252°
2026-05-09 16:29 45.52465 -57.59109 39114 ft 437 kts 252°
2026-05-09 16:30 45.50784 -57.67403 39127 ft 436 kts 252°
2026-05-09 16:30 45.49104 -57.75661 39127 ft 436 kts 252°
2026-05-09 16:31 45.47417 -57.83917 39129 ft 435 kts 252°
2026-05-09 16:31 45.45726 -57.92157 39127 ft 435 kts 252°
2026-05-09 16:32 45.44026 -58.00406 39127 ft 435 kts 252°
2026-05-09 16:32 45.42322 -58.08643 39129 ft 436 kts 252°
2026-05-09 16:33 45.40613 -58.16870 39124 ft 435 kts 252°
2026-05-09 16:33 45.38899 -58.25088 39123 ft 434 kts 252°
2026-05-09 16:34 45.37184 -58.33281 39127 ft 432 kts 252°
2026-05-09 16:34 45.35469 -58.41436 39128 ft 432 kts 252°
2026-05-09 16:35 45.33747 -58.49593 39128 ft 432 kts 252°
2026-05-09 16:35 45.32024 -58.57722 39122 ft 431 kts 252°
2026-05-09 16:36 45.28556 -58.73989 39132 ft 430 kts 252°
2026-05-09 16:37 45.26816 -58.82105 39128 ft 431 kts 252°
2026-05-09 16:37 45.25070 -58.90213 39132 ft 430 kts 252°
2026-05-09 16:38 45.23320 -58.98311 39126 ft 429 kts 252°
2026-05-09 16:38 45.21571 -59.06372 39132 ft 429 kts 252°
2026-05-09 16:39 45.19814 -59.14441 39128 ft 429 kts 252°
2026-05-09 16:39 45.18051 -59.22504 39130 ft 428 kts 252°
2026-05-09 16:40 45.16282 -59.30561 39129 ft 428 kts 252°
2026-05-09 16:42 45.09173 -59.62644 39130 ft 426 kts 252°
2026-05-09 16:42 45.07382 -59.70654 39135 ft 427 kts 251°
2026-05-09 16:43 45.05591 -59.78632 39134 ft 427 kts 252°
2026-05-09 16:43 45.03785 -59.86644 39137 ft 427 kts 252°
2026-05-09 16:44 45.01985 -59.94603 39133 ft 427 kts 252°
2026-05-09 16:44 45.00173 -60.02585 39133 ft 427 kts 252°
2026-05-09 16:45 44.98356 -60.10559 39132 ft 428 kts 252°
2026-05-09 16:45 44.96533 -60.18529 39129 ft 427 kts 252°
2026-05-09 16:46 44.94705 -60.26494 39128 ft 427 kts 252°
2026-05-09 16:46 44.92875 -60.34437 39122 ft 427 kts 252°
2026-05-09 16:47 44.91043 -60.42357 39115 ft 426 kts 252°
2026-05-09 16:47 44.89196 -60.50318 39126 ft 426 kts 252°
2026-05-09 16:48 44.87347 -60.58256 39120 ft 427 kts 252°
2026-05-09 16:48 44.85492 -60.66189 39118 ft 427 kts 251°
2026-05-09 16:49 44.83628 -60.74134 39123 ft 427 kts 251°
2026-05-09 16:50 44.80826 -60.86027 39114 ft 427 kts 251°
2026-05-09 16:50 44.78951 -60.93945 39113 ft 427 kts 251°
2026-05-09 16:51 44.77073 -61.01855 39117 ft 427 kts 251°
2026-05-09 16:51 44.75186 -61.09766 39115 ft 427 kts 251°
2026-05-09 16:52 44.73294 -61.17676 39115 ft 427 kts 252°
2026-05-09 16:52 44.71407 -61.25534 39113 ft 426 kts 251°
2026-05-09 16:53 44.69508 -61.33415 39114 ft 426 kts 252°
2026-05-09 16:53 44.67606 -61.41284 39109 ft 426 kts 252°
2026-05-09 16:54 44.65698 -61.49146 39113 ft 425 kts 252°
2026-05-09 16:54 44.63786 -61.56998 39110 ft 426 kts 252°
2026-05-09 16:55 44.61872 -61.64835 39114 ft 424 kts 252°
2026-05-09 16:55 44.59949 -61.72675 39120 ft 426 kts 251°
2026-05-09 16:56 44.58028 -61.80486 39116 ft 423 kts 251°
2026-05-09 16:56 44.56105 -61.88275 39122 ft 423 kts 251°
2026-05-09 16:57 44.54183 -61.96036 39116 ft 422 kts 251°
2026-05-09 16:57 44.52256 -62.03787 39118 ft 423 kts 251°
2026-05-09 16:58 44.50322 -62.11544 39116 ft 424 kts 251°
2026-05-09 16:58 44.48377 -62.19317 39117 ft 423 kts 252°
2026-05-09 16:59 44.46437 -62.27043 39115 ft 422 kts 252°
2026-05-09 16:59 44.44493 -62.34762 39120 ft 422 kts 252°
2026-05-09 17:00 44.42539 -62.42490 39123 ft 421 kts 252°
2026-05-09 17:00 44.40584 -62.50203 39117 ft 422 kts 251°
2026-05-09 17:01 44.38618 -62.57928 39125 ft 422 kts 252°
2026-05-09 17:01 44.36651 -62.65631 39128 ft 420 kts 251°
2026-05-09 17:02 44.34684 -62.73314 39128 ft 421 kts 251°
2026-05-09 17:02 44.32715 -62.80974 39132 ft 420 kts 251°
2026-05-09 17:03 44.30739 -62.88640 39133 ft 420 kts 251°
2026-05-09 17:05 44.22817 -63.19118 39115 ft 418 kts 251°
2026-05-09 17:05 44.20828 -63.26711 39121 ft 417 kts 252°
2026-05-09 17:06 44.18842 -63.34267 39123 ft 416 kts 251°
2026-05-09 17:06 44.16852 -63.41812 39118 ft 415 kts 252°
2026-05-09 17:07 44.14855 -63.49364 39116 ft 415 kts 252°
2026-05-09 17:07 44.12865 -63.56861 39112 ft 415 kts 252°
2026-05-09 17:08 44.10858 -63.64402 39118 ft 415 kts 252°
2026-05-09 17:08 44.07854 -63.75645 39122 ft 414 kts 251°
2026-05-09 17:09 44.05844 -63.83135 39120 ft 413 kts 251°
2026-05-09 17:09 44.03832 -63.90611 39125 ft 414 kts 251°
2026-05-09 17:10 44.01821 -63.98060 39119 ft 411 kts 251°
2026-05-09 17:10 43.99811 -64.05482 39110 ft 411 kts 251°
2026-05-09 17:11 43.97796 -64.12903 39109 ft 411 kts 251°
2026-05-09 17:11 43.95780 -64.20302 39111 ft 411 kts 251°
2026-05-09 17:12 43.93751 -64.27727 39105 ft 413 kts 251°
2026-05-09 17:12 43.91727 -64.35110 39099 ft 410 kts 252°
2026-05-09 17:13 43.89690 -64.42519 39102 ft 411 kts 251°
2026-05-09 17:13 43.87658 -64.49887 39102 ft 409 kts 251°
2026-05-09 17:14 43.85628 -64.57228 39097 ft 409 kts 252°
2026-05-09 17:14 43.83588 -64.64582 39087 ft 410 kts 251°
2026-05-09 17:15 43.81551 -64.71900 39104 ft 409 kts 251°
2026-05-09 17:15 43.79504 -64.79237 39096 ft 408 kts 251°
2026-05-09 17:17 43.71277 -65.08497 39098 ft 407 kts 251°
2026-05-09 17:18 43.69220 -65.15758 39103 ft 405 kts 251°
2026-05-09 17:18 43.67148 -65.23054 39103 ft 407 kts 251°
2026-05-09 17:19 43.65091 -65.30272 39095 ft 403 kts 251°
2026-05-09 17:19 43.63023 -65.37509 39091 ft 405 kts 251°
2026-05-09 17:20 43.60959 -65.44712 39098 ft 404 kts 251°
2026-05-09 17:20 43.58887 -65.51923 39099 ft 405 kts 251°
2026-05-09 17:21 43.56817 -65.59105 39103 ft 402 kts 251°
2026-05-09 17:21 43.54741 -65.66286 39106 ft 403 kts 250°
2026-05-09 17:22 43.52668 -65.73440 39122 ft 403 kts 250°
2026-05-09 17:22 43.50587 -65.80597 39111 ft 402 kts 250°
2026-05-09 17:23 43.48510 -65.87725 39112 ft 401 kts 250°
2026-05-09 17:23 43.46433 -65.94831 39121 ft 402 kts 250°
2026-05-09 17:25 43.40172 -66.16127 39108 ft 399 kts 251°
2026-05-09 17:25 43.38085 -66.23190 39110 ft 400 kts 251°
2026-05-09 17:26 43.35984 -66.30276 39109 ft 400 kts 250°
2026-05-09 17:26 43.33895 -66.37303 39110 ft 398 kts 250°
2026-05-09 17:27 43.31797 -66.44343 39109 ft 401 kts 251°
2026-05-09 17:27 43.29693 -66.51382 39118 ft 399 kts 251°
2026-05-09 17:28 43.27589 -66.58403 39104 ft 399 kts 250°
2026-05-09 17:28 43.25482 -66.65414 39113 ft 399 kts 250°
2026-05-09 17:29 43.23363 -66.72447 39122 ft 399 kts 250°
2026-05-09 17:29 43.21247 -66.79450 39106 ft 398 kts 250°
2026-05-09 17:30 43.19131 -66.86431 39108 ft 398 kts 250°
2026-05-09 17:30 43.17006 -66.93426 39109 ft 398 kts 250°
2026-05-09 17:31 43.14884 -67.00405 39120 ft 398 kts 250°
2026-05-09 17:32 43.09601 -67.17810 39096 ft 399 kts 250°
2026-05-09 17:33 43.07480 -67.24766 39101 ft 396 kts 250°
2026-05-09 17:33 43.05360 -67.31699 39103 ft 396 kts 250°
2026-05-09 17:34 43.03243 -67.38607 39103 ft 394 kts 250°
2026-05-09 17:35 42.95807 -67.62723 39087 ft 394 kts 250°
2026-05-09 17:36 42.93669 -67.69618 39095 ft 396 kts 249°
2026-05-09 17:36 42.91527 -67.76506 39100 ft 395 kts 249°
2026-05-09 17:37 42.89389 -67.83359 39096 ft 392 kts 250°
2026-05-09 17:37 42.87247 -67.90215 39088 ft 395 kts 250°
2026-05-09 17:38 42.85094 -67.97084 39081 ft 392 kts 249°
2026-05-09 17:39 42.81873 -68.07329 39080 ft 393 kts 249°
2026-05-09 17:39 42.79728 -68.14124 39075 ft 391 kts 250°
2026-05-09 17:40 42.77583 -68.20908 39069 ft 393 kts 249°
2026-05-09 17:40 42.75425 -68.27716 39070 ft 392 kts 249°
2026-05-09 17:41 42.73267 -68.34503 39058 ft 392 kts 250°
2026-05-09 17:41 42.71100 -68.41304 39060 ft 392 kts 249°
2026-05-09 17:42 42.68931 -68.48093 39052 ft 391 kts 249°
2026-05-09 17:42 42.66763 -68.54862 39053 ft 394 kts 249°
2026-05-09 17:43 42.64583 -68.61648 39049 ft 391 kts 249°
2026-05-09 17:43 42.62402 -68.68424 39055 ft 392 kts 249°
2026-05-09 17:44 42.60217 -68.75194 39052 ft 393 kts 249°
2026-05-09 17:44 42.58020 -68.81982 39044 ft 393 kts 249°
2026-05-09 17:45 42.55822 -68.88758 39047 ft 393 kts 248°
2026-05-09 17:45 42.53619 -68.95530 39036 ft 393 kts 249°
2026-05-09 17:46 42.51410 -69.02306 39031 ft 392 kts 249°
2026-05-09 17:46 42.49209 -69.09040 39032 ft 394 kts 249°
2026-05-09 17:47 42.46988 -69.15818 39025 ft 394 kts 249°
2026-05-09 17:47 42.44772 -69.22565 39022 ft 393 kts 249°
2026-05-09 17:48 42.42550 -69.29312 39019 ft 393 kts 249°
2026-05-09 17:48 42.40324 -69.36054 39011 ft 395 kts 249°
2026-05-09 17:49 42.38089 -69.42807 39006 ft 393 kts 248°
2026-05-09 17:49 42.35857 -69.49533 39001 ft 393 kts 248°
2026-05-09 17:50 42.33617 -69.56267 38997 ft 393 kts 249°
2026-05-09 17:50 42.30255 -69.66345 39006 ft 393 kts 248°
2026-05-09 17:51 42.28011 -69.73050 39010 ft 393 kts 248°
2026-05-09 17:51 42.25761 -69.79760 39008 ft 393 kts 248°
2026-05-09 17:52 42.23504 -69.86470 39004 ft 393 kts 248°
2026-05-09 17:52 42.21254 -69.93145 38995 ft 392 kts 248°
2026-05-09 17:53 42.18997 -69.99822 38988 ft 393 kts 248°
2026-05-09 17:53 42.16727 -70.06524 38998 ft 393 kts 248°
2026-05-09 17:54 42.14459 -70.13202 38993 ft 392 kts 248°
2026-05-09 17:54 42.12185 -70.19882 38990 ft 395 kts 248°
2026-05-09 17:55 42.09906 -70.26561 38996 ft 393 kts 248°
2026-05-09 17:55 42.07631 -70.33212 38988 ft 393 kts 248°
2026-05-09 17:56 42.05343 -70.39884 38980 ft 392 kts 247°
2026-05-09 17:57 42.02077 -70.49954 38973 ft 392 kts 249°
2026-05-09 17:57 41.99973 -70.56705 38969 ft 393 kts 249°
2026-05-09 17:58 41.97853 -70.63465 38951 ft 392 kts 250°
2026-05-09 17:58 41.95736 -70.70188 38965 ft 392 kts 249°
2026-05-09 17:59 41.93595 -70.76963 38959 ft 394 kts 249°
2026-05-09 17:59 41.91456 -70.83712 38968 ft 393 kts 249°
2026-05-09 18:00 41.89312 -70.90459 38964 ft 393 kts 249°
2026-05-09 18:00 41.87155 -70.97226 38973 ft 393 kts 249°
2026-05-09 18:01 41.85003 -71.03963 38975 ft 391 kts 249°
2026-05-09 18:01 41.82855 -71.10672 38975 ft 392 kts 249°
2026-05-09 18:02 41.80708 -71.17358 38980 ft 390 kts 249°
2026-05-09 18:02 41.78563 -71.24024 38972 ft 391 kts 248°
2026-05-09 18:03 41.76408 -71.30704 38971 ft 390 kts 249°
2026-05-09 18:03 41.74256 -71.37357 38967 ft 389 kts 249°
2026-05-09 18:04 41.71490 -71.43587 38958 ft 396 kts 233°
2026-05-09 18:04 41.67394 -71.48590 38966 ft 402 kts 226°
2026-05-09 18:05 41.63123 -71.53370 38962 ft 400 kts 226°
2026-05-09 18:05 41.58851 -71.58136 38960 ft 400 kts 226°
2026-05-09 18:06 41.54573 -71.62898 38956 ft 402 kts 226°
2026-05-09 18:06 41.50269 -71.67680 38966 ft 402 kts 225°
2026-05-09 18:07 41.46031 -71.72373 38962 ft 384 kts 226°
2026-05-09 18:07 41.41969 -71.76872 38882 ft 387 kts 226°
2026-05-09 18:07 41.39848 -71.79227 38393 ft 407 kts 225°
2026-05-09 18:08 41.37660 -71.81647 37697 ft 414 kts 225°
2026-05-09 18:08 41.35434 -71.84102 36965 ft 418 kts 225°
2026-05-09 18:08 41.33196 -71.86569 36250 ft 422 kts 225°
2026-05-09 18:08 41.30934 -71.89060 35694 ft 427 kts 224°
2026-05-09 18:09 41.28638 -71.91587 34919 ft 435 kts 224°
2026-05-09 18:09 41.26310 -71.94145 33642 ft 439 kts 224°
2026-05-09 18:09 41.23963 -71.96722 32604 ft 439 kts 223°
2026-05-09 18:09 41.21623 -71.99288 31680 ft 437 kts 223°
2026-05-09 18:10 41.19285 -72.01848 30772 ft 435 kts 223°
2026-05-09 18:10 41.17742 -72.03537 30345 ft 429 kts 223°
2026-05-09 18:10 41.14718 -72.06843 29637 ft 417 kts 223°
2026-05-09 18:10 41.12555 -72.09315 29045 ft 406 kts 228°
2026-05-09 18:11 41.10764 -72.12132 28449 ft 396 kts 237°
2026-05-09 18:11 41.09420 -72.15258 27868 ft 388 kts 246°
2026-05-09 18:11 41.08467 -72.18559 27289 ft 382 kts 250°
2026-05-09 18:11 41.07606 -72.21851 26711 ft 377 kts 251°
2026-05-09 18:12 41.06771 -72.25098 26142 ft 372 kts 251°
2026-05-09 18:12 41.05948 -72.28321 25590 ft 366 kts 251°
2026-05-09 18:12 41.05146 -72.31484 25065 ft 362 kts 251°
2026-05-09 18:12 41.04354 -72.34628 24524 ft 357 kts 251°
2026-05-09 18:13 41.03578 -72.37716 24011 ft 353 kts 251°
2026-05-09 18:13 41.02805 -72.40798 23493 ft 358 kts 251°
2026-05-09 18:13 41.02012 -72.43964 22955 ft 366 kts 251°
2026-05-09 18:13 41.01215 -72.47149 22389 ft 364 kts 251°
2026-05-09 18:14 41.00426 -72.50300 21827 ft 359 kts 251°
2026-05-09 18:14 40.99646 -72.53411 21265 ft 355 kts 251°
2026-05-09 18:14 40.98875 -72.56481 20710 ft 352 kts 251°
2026-05-09 18:14 40.98108 -72.59529 20163 ft 350 kts 251°
2026-05-09 18:15 40.97340 -72.62579 19595 ft 351 kts 251°
2026-05-09 18:15 40.96573 -72.65624 19032 ft 349 kts 251°
2026-05-09 18:15 40.95805 -72.68667 18479 ft 346 kts 251°
2026-05-09 18:15 40.95046 -72.71669 17931 ft 344 kts 251°
2026-05-09 18:16 40.94290 -72.74660 17360 ft 342 kts 251°
2026-05-09 18:16 40.93514 -72.77602 16786 ft 339 kts 246°
2026-05-09 18:16 40.92230 -72.80184 16225 ft 338 kts 229°
2026-05-09 18:16 40.90451 -72.82234 15657 ft 338 kts 220°
2026-05-09 18:17 40.88583 -72.84089 15110 ft 335 kts 219°
2026-05-09 18:17 40.86711 -72.85895 14577 ft 332 kts 219°
2026-05-09 18:17 40.84846 -72.87685 14018 ft 330 kts 219°
2026-05-09 18:17 40.82994 -72.89460 13465 ft 328 kts 219°
2026-05-09 18:18 40.81150 -72.91226 12893 ft 326 kts 218°
2026-05-09 18:18 40.79320 -72.92977 12344 ft 323 kts 218°
2026-05-09 18:18 40.77509 -72.94710 11801 ft 320 kts 218°
2026-05-09 18:18 40.75717 -72.96423 11253 ft 317 kts 218°
2026-05-09 18:19 40.73939 -72.98121 10715 ft 315 kts 217°
2026-05-09 18:19 40.70543 -73.01381 10409 ft 286 kts 220°
2026-05-09 18:19 40.69338 -73.03357 10295 ft 274 kts 242°
2026-05-09 18:20 40.68808 -73.05725 10171 ft 267 kts 257°
2026-05-09 18:20 40.68644 -73.08125 10056 ft 259 kts 263°
2026-05-09 18:20 40.68605 -73.10459 9913 ft 253 kts 264°
2026-05-09 18:20 40.68604 -73.12766 9547 ft 254 kts 265°
2026-05-09 18:21 40.68614 -73.15093 9168 ft 254 kts 265°
2026-05-09 18:21 40.68627 -73.17414 8841 ft 253 kts 265°
2026-05-09 18:21 40.68639 -73.19721 8527 ft 251 kts 265°
2026-05-09 18:21 40.68649 -73.21946 8224 ft 248 kts 265°
2026-05-09 18:22 40.68659 -73.24219 7906 ft 246 kts 265°
2026-05-09 18:22 40.68669 -73.26469 7592 ft 245 kts 265°
2026-05-09 18:22 40.68678 -73.28702 7283 ft 243 kts 265°
2026-05-09 18:22 40.68687 -73.30915 6977 ft 241 kts 265°
2026-05-09 18:23 40.68695 -73.33121 6665 ft 240 kts 265°
2026-05-09 18:23 40.68717 -73.35314 6351 ft 240 kts 270°
2026-05-09 18:23 40.69290 -73.37420 6029 ft 253 kts 299°
2026-05-09 18:23 40.70377 -73.39259 5701 ft 252 kts 297°
2026-05-09 18:24 40.71274 -73.41216 5367 ft 248 kts 292°
2026-05-09 18:24 40.72065 -73.43234 5041 ft 246 kts 290°
2026-05-09 18:24 40.72827 -73.45247 4730 ft 245 kts 290°
2026-05-09 18:25 40.74277 -73.49081 4647 ft 220 kts 290°
2026-05-09 18:25 40.74938 -73.50837 4637 ft 208 kts 289°
2026-05-09 18:25 40.75576 -73.52534 4487 ft 205 kts 289°
2026-05-09 18:25 40.75948 -73.54287 4234 ft 193 kts 260°
2026-05-09 18:26 40.75710 -73.55951 4207 ft 180 kts 262°
2026-05-09 18:26 40.75870 -73.57562 4097 ft 177 kts 275°
2026-05-09 18:26 40.76148 -73.59146 3800 ft 177 kts 276°
2026-05-09 18:26 40.76424 -73.60721 3496 ft 176 kts 276°
2026-05-09 18:27 40.76547 -73.62294 3143 ft 168 kts 254°
2026-05-09 18:27 40.76137 -73.63697 2845 ft 160 kts 239°
2026-05-09 18:27 40.75578 -73.64982 2641 ft 164 kts 238°
2026-05-09 18:27 40.74998 -73.66284 2435 ft 165 kts 237°
2026-05-09 18:28 40.74211 -73.67318 2223 ft 161 kts 205°
2026-05-09 18:28 40.73090 -73.67318 1993 ft 171 kts 164°
2026-05-09 18:28 40.72192 -73.66213 1770 ft 188 kts 123°
2026-05-09 18:28 40.71963 -73.64490 1572 ft 194 kts 98°
2026-05-09 18:29 40.71675 -73.62786 1518 ft 190 kts 117°
2026-05-09 18:29 40.71193 -73.61134 1563 ft 194 kts 117°
2026-05-09 18:29 40.70726 -73.59471 1857 ft 192 kts 117°
2026-05-09 18:29 40.70257 -73.57788 1956 ft 197 kts 117°
2026-05-09 18:30 40.70016 -73.56013 1959 ft 199 kts 88°
2026-05-09 18:30 40.70606 -73.54383 1958 ft 205 kts 46°
2026-05-09 18:30 40.71746 -73.53174 1966 ft 211 kts 37°
2026-05-09 18:30 40.72914 -73.52003 1968 ft 210 kts 37°
2026-05-09 18:31 40.74086 -73.50825 1965 ft 211 kts 36°
2026-05-09 18:31 40.75367 -73.49956 1961 ft 206 kts
2026-05-09 18:31 40.76755 -73.50186 1957 ft 201 kts 327°
2026-05-09 18:31 40.77744 -73.51384 1956 ft 187 kts 299°
2026-05-09 18:32 40.78478 -73.52774 1964 ft 182 kts 297°
2026-05-09 18:32 40.79206 -73.54138 1970 ft 180 kts 297°
2026-05-09 18:32 40.79932 -73.55505 1968 ft 181 kts 297°
2026-05-09 18:32 40.80641 -73.56875 1965 ft 178 kts 291°
2026-05-09 18:33 40.80828 -73.58403 1949 ft 169 kts 252°
2026-05-09 18:33 40.80316 -73.59793 1958 ft 168 kts 238°
2026-05-09 18:33 40.79727 -73.61095 1971 ft 163 kts 237°
2026-05-09 18:33 40.79153 -73.62378 1971 ft 161 kts 237°
2026-05-09 18:34 40.78506 -73.63577 1967 ft 160 kts 218°
2026-05-09 18:34 40.77478 -73.64180 1938 ft 163 kts 207°
2026-05-09 18:34 40.76573 -73.65059 1863 ft 157 kts 230°
2026-05-09 18:34 40.75996 -73.66307 1963 ft 169 kts 234°
2026-05-09 18:35 40.75151 -73.67298 1962 ft 159 kts 210°
2026-05-09 18:35 40.74141 -73.67984 1970 ft 165 kts 211°
2026-05-09 18:35 40.73163 -73.68751 1961 ft 161 kts 212°
2026-05-09 18:35 40.72179 -73.69524 1765 ft 161 kts 212°
2026-05-09 18:36 40.71268 -73.70231 1554 ft 146 kts 212°
2026-05-09 18:36 40.70409 -73.70902 1370 ft 138 kts 212°
2026-05-09 18:36 40.69613 -73.71522 1190 ft 126 kts 212°
2026-05-09 18:36 40.68901 -73.72078 1044 ft 115 kts 212°
2026-05-09 18:37 40.68189 -73.72634 889 ft 121 kts 212°
2026-05-09 18:37 40.67469 -73.73196 734 ft 119 kts 211°
2026-05-09 18:37 40.66764 -73.73746 567 ft 117 kts 212°
2026-05-09 18:37 40.66054 -73.74300 413 ft 118 kts 212°
2026-05-09 18:38 40.65345 -73.74851 249 ft 118 kts 211°
2026-05-09 18:38 40.64632 -73.75403 94 ft 122 kts 211°
2026-05-09 18:38 40.63913 -73.75967 29 ft 103 kts 207°
2026-05-09 18:40 40.63154 -73.77475 28 ft 20 kts 302°
2026-05-09 18:40 40.63234 -73.77644 28 ft 22 kts 301°
2026-05-09 18:40 40.63306 -73.77802 28 ft 15 kts 300°
2026-05-09 18:41 40.63375 -73.77959 28 ft 25 kts 298°
2026-05-09 18:41 40.63446 -73.78123 28 ft 20 kts 301°
2026-05-09 18:41 40.63524 -73.78292 28 ft 22 kts 301°
2026-05-09 18:41 40.63603 -73.78468 28 ft 21 kts 300°
2026-05-09 18:42 40.63679 -73.78644 28 ft 22 kts 301°
2026-05-09 18:42 40.63755 -73.78807 28 ft 16 kts 301°
2026-05-09 18:42 40.63820 -73.78946 28 ft 18 kts 301°
2026-05-09 18:42 40.63890 -73.79102 28 ft 20 kts 300°
2026-05-09 18:43 40.63966 -73.79271 28 ft 22 kts 301°
2026-05-09 18:43 40.64044 -73.79437 28 ft 20 kts 308°
2026-05-09 18:43 40.64177 -73.79506 28 ft 22 kts
2026-05-09 18:43 40.64341 -73.79493 28 ft 24 kts
2026-05-09 18:44 40.64494 -73.79504 28 ft 22 kts 357°
2026-05-09 18:44 40.64638 -73.79565 28 ft 18 kts 327°
2026-05-09 18:44 40.64749 -73.79666 28 ft 19 kts 324°
2026-05-09 18:44 40.64865 -73.79706 28 ft 17 kts
2026-05-09 18:45 40.64980 -73.79696 28 ft 15 kts
2026-05-09 18:45 40.65041 -73.79599 28 ft 14 kts 88°
2026-05-09 18:45 40.65059 -73.79455 28 ft 17 kts 65°
2026-05-09 18:45 40.65098 -73.79360 28 ft 7 kts 61°
2026-05-09 18:46 40.65172 -73.79309 28 ft 12 kts 12°
2026-05-09 18:46 40.65203 -73.79218 28 ft 14 kts 97°
2026-05-09 18:46 40.65174 -73.79075 28 ft 17 kts 107°
2026-05-09 18:46 40.65136 -73.78941 28 ft 14 kts 137°
2026-05-09 18:47 40.65040 -73.78943 28 ft 13 kts 219°
2026-05-09 18:47 40.65000 -73.79022 28 ft 6 kts 238°
2026-05-09 18:47 40.65014 -73.79054 28 ft 5 kts 328°
2026-05-09 18:47 40.65037 -73.79073 28 ft 2 kts 328°
2026-05-09 18:48 40.65041 -73.79076 28 ft 0 kts 329°